AT&T T-16

Last updated on Sat Apr 13 2024 01:02:39 GMT+0100 (British Summer Time)

1 44333U 19034A 24103.50070830 -.00000124 00000+0 00000+0 0 9993 2 44333 0.0134 213.2963 0001325 0.7526 66.5273 1.00270316 17641
UTC large
Height (km)
Speed (km/s)
/
Latitude / Longitude
Inclination (degrees)
Orbital Period (minutes)
Azimuth
Elevation
Range (km)
Doppler Factor

Next 0 passes for location: London (51.5072 / 0.1276)

Sorry there are no passes over London.